[[{"header":{"parameterUnit":"m.s-1","parameterCategory":1,"la1":30.2991,"la2":30.254,"lo1":-89.0895,"lo2":-89.0444,"dy":0.0017,"dx":0.0017,"nx":28,"ny":28,"refTime":"2024-05-11T21:00:00:Z","depth":0,"parameterNumber":2,"parameterNumberName":"U-component_of_WINDS"},"data":[0,0,0,0,0,0,0,0,0,0,0,0,0,0,0,0,0,0,0,0,0,0,0,0,0,0,0,0,0,0,0,0,0,0,0,0,0,0,0,0,0,0,0,0,0,0,0,0,0,0,0,0,0,0,0,0,0,0,-0.8588,-0.8588,0,-0.8536,-0.8535,-0.8534,-0.8479,-0.8479,-0.8478,-0.8477,-0.8423,-0.8422,-0.8421,0,0,0,0,0,0,0,0,0,0,0,0,0,-0.8641,-0.864,-0.8588,-0.8588,-0.8587,-0.8536,-0.8535,-0.8534,-0.848,-0.8479,-0.8478,-0.8477,-0.8423,-0.8422,-0.8421,0,0,0,0,0,0,0,0,0,0,0,0,0,-0.8606,-0.864,-0.8588,-0.8553,-0.855,-0.8536,-0.8535,-0.8534,-0.848,-0.8479,-0.8477,-0.8476,-0.8423,-0.8422,-0.8421,-0.8437,0,0,-0.8418,-0.8417,0,0,0,0,0,0,0,0,-0.8608,-0.8604,-0.8559,-0.8556,-0.8552,-0.8513,-0.8533,-0.8502,-0.848,-0.8506,-0.8477,-0.8476,-0.8454,-0.845,-0.8442,-0.8434,-0.8432,-0.8418,-0.8417,-0.8416,-0.8416,0,0,0,0,0,0,0,-0.861,-0.8606,-0.8567,-0.8559,-0.8554,-0.854,-0.8534,-0.8527,-0.8487,-0.8504,-0.85,-0.8494,-0.8451,-0.8444,-0.8441,-0.8431,-0.8418,-0.8417,-0.8416,-0.8415,-0.8434,-0.8435,0,0,0,0,0,0,-0.8618,-0.8608,-0.8569,-0.8566,-0.8578,-0.854,-0.8533,-0.8527,-0.8487,-0.848,-0.8495,-0.8492,-0.8446,-0.8442,-0.8439,-0.8455,-0.8416,-0.8415,-0.8415,-0.8433,-0.8434,-0.8436,0,0,0,0,0,0,-0.862,-0.8615,-0.8571,-0.8586,-0.8579,-0.854,-0.8533,-0.8526,-0.8518,-0.848,-0.8473,-0.8495,-0.8445,-0.844,-0.8438,-0.8453,-0.8415,-0.8414,-0.8432,-0.8433,-0.8435,-0.8489,0,0,0,0,0,0,-0.8621,-0.8616,-0.8622,-0.8587,-0.8579,-0.8572,-0.8534,-0.8526,-0.8517,-0.8512,-0.8478,-0.8472,-0.8444,-0.844,-0.8437,-0.845,-0.8413,-0.843,-0.8432,-0.8434,-0.8485,-0.8492,-0.8498,0,0,0,0,0,-0.8623,-0.8639,-0.8623,-0.8618,-0.8585,-0.8573,-0.8568,-0.8536,-0.8518,-0.8524,-0.8499,-0.8473,-0.8451,-0.844,-0.8436,-0.845,-0.8429,-0.8432,-0.8434,-0.8483,-0.8491,-0.8498,0,0,0,0,0,0,-0.8677,-0.8634,-0.8615,-0.862,-0.86,-0.8564,-0.857,-0.8546,-0.8531,-0.8527,-0.8488,-0.848,-0.8483,-0.8466,-0.8454,-0.8463,-0.8436,-0.8438,-0.8475,-0.8482,-0.8488,-0.8492,-0.8412,0,0,0,0,0,-0.8689,-0.8683,-0.8645,-0.8653,-0.8644,-0.8609,-0.8602,-0.8579,-0.8557,-0.8549,-0.8524,-0.8504,-0.8493,-0.8486,-0.8474,-0.8482,-0.8474,-0.849,-0.8496,-0.8501,-0.8503,-0.8507,-0.8514,-0.8444,-0.8444,-0.8444,0,0,-0.8715,-0.869,-0.8689,-0.8663,-0.8646,-0.864,-0.8602,-0.8598,-0.8593,-0.8548,-0.8545,-0.8526,-0.8501,-0.8504,-0.8504,-0.849,-0.8521,-0.8504,-0.8509,-0.8508,-0.8511,-0.8517,-0.8523,-0.8446,-0.8446,-0.8445,0,0,-0.8759,-0.8739,-0.8744,-0.8727,-0.8701,-0.8677,-0.8678,-0.8645,-0.8631,-0.8627,-0.8593,-0.8587,-0.8568,-0.8551,-0.8541,-0.8578,-0.8553,-0.8575,-0.8607,-0.8612,-0.8617,-0.8622,-0.8636,-0.8641,-0.8577,-0.8577,-0.8578,0,-0.8794,-0.8784,-0.8749,-0.8747,-0.8737,-0.8696,-0.87,-0.8685,-0.8656,-0.865,-0.8634,-0.861,-0.859,-0.859,-0.8599,-0.8591,-0.8592,-0.8579,-0.8619,-0.8624,-0.8627,-0.864,-0.8646,-0.858,-0.858,-0.858,-0.8579,0,-0.8829,-0.8823,-0.8829,-0.8803,-0.8793,-0.8794,-0.876,-0.8754,-0.8732,-0.871,-0.8706,-0.868,-0.8662,-0.866,-0.8638,-0.8657,-0.8649,-0.8626,-0.8599,-0.8638,-0.8649,-0.8654,-0.8585,-0.8583,-0.8583,-0.8582,0,0,-0.8906,-0.886,-0.8863,-0.8851,-0.8819,-0.8813,-0.8812,-0.8794,-0.8791,-0.8772,-0.877,-0.8755,-0.8735,-0.8723,-0.8698,-0.8702,-0.8734,-0.8679,-0.8678,-0.8691,-0.8753,-0.8771,-0.8778,-0.8717,-0.8718,-0.8718,-0.8756,0,-0.8945,-0.8941,-0.891,-0.8915,-0.8909,-0.887,-0.8869,-0.8849,-0.8828,-0.882,-0.8796,-0.8787,-0.876,-0.8753,-0.8754,-0.873,-0.8746,-0.8726,-0.8716,-0.8716,-0.8724,-0.8783,-0.8802,-0.8839,-0.876,-0.8761,-0.8761,0,-0.899,-0.8975,-0.898,-0.8948,-0.8944,-0.8944,-0.8925,-0.8918,-0.8894,-0.8879,-0.8865,-0.8838,-0.8834,-0.8808,-0.8803,-0.879,-0.8784,-0.8771,-0.8772,-0.877,-0.8742,-0.8785,-0.885,-0.8856,-0.8768,-0.8767,-0.8767,0,-0.9047,-0.9027,-0.9028,-0.9018,-0.898,-0.8981,-0.8966,-0.8941,-0.8933,-0.8916,-0.891,-0.8894,-0.8885,-0.8873,-0.8841,-0.8825,-0.884,-0.8811,-0.8828,-0.8829,-0.8834,-0.8834,-0.89,-0.8828,-0.8828,-0.8828,-0.8828,0,-0.9095,-0.91,-0.9053,-0.9053,-0.9057,-0.9021,-0.9026,-0.9006,-0.8985,-0.8981,-0.8945,-0.8942,-0.89,-0.8893,-0.8868,-0.8868,-0.8864,-0.8852,-0.8845,-0.8856,-0.8857,-0.8852,-0.8849,-0.8829,-0.8829,-0.8829,-0.8828,0,-0.916,-0.9128,-0.9127,-0.9091,-0.9082,-0.9087,-0.9056,-0.9055,-0.9032,-0.9027,-0.9024,-0.8988,-0.8976,-0.8944,-0.8924,-0.8908,-0.8915,-0.8902,-0.8924,-0.892,-0.8939,-0.8938,-0.9004,-0.9011,-0.8934,-0.8935,-0.8935,0,-0.9193,-0.9195,-0.916,-0.9155,-0.9141,-0.9133,-0.9124,-0.9088,-0.9081,-0.9054,-0.9056,-0.9042,-0.9029,-0.9013,-0.8985,-0.897,-0.8957,-0.8981,-0.8955,-0.8965,-0.8959,-0.896,-0.896,-0.8988,-0.8989,-0.899,-0.899,0,-0.9255,-0.9239,-0.9228,-0.9212,-0.9203,-0.9188,-0.9171,-0.9169,-0.9128,-0.9121,-0.911,-0.91,-0.908,-0.9067,-0.9047,-0.903,-0.9004,-0.8999,-0.9002,-0.9013,-0.9026,-0.902,-0.8941,-0.8998,-0.8997,-0.8996,-0.8996,-0.8996,-0.9305,-0.9306,-0.9282,-0.9271,-0.9254,-0.924,-0.9237,-0.9213,-0.9203,-0.9184,-0.9163,-0.9154,-0.913,-0.9101,-0.9087,-0.9079,-0.9065,-0.907,-0.9071,-0.9073,-0.9078,-0.9026,-0.9075,-0.9075,-0.9075,-0.9075,-0.9074,0,-0.9367,-0.9349,-0.9339,-0.9317,-0.9308,-0.9284,-0.9264,-0.9258,-0.9251,-0.9231,-0.9219,-0.9206,-0.9193,-0.9163,-0.9147,-0.9147,-0.9134,-0.9144,-0.9144,-0.9141,-0.9091,-0.909,-0.9155,-0.9155,-0.9155,-0.9155,-0.9155,-0.9155,-0.9398,-0.9398,-0.938,-0.9372,-0.9354,-0.9345,-0.9336,-0.9322,-0.9306,-0.9293,-0.9282,-0.9263,-0.9239,-0.9221,-0.9208,-0.92,-0.9196,-0.921,-0.9198,-0.9152,-0.9145,-0.9137,-0.9137,-0.9209,-0.9209,-0.9249,-0.9249,-0.9249]},{"header":{"parameterUnit":"m.s-1","parameterCategory":1,"la1":30.2991,"la2":30.254,"lo1":-89.0895,"lo2":-89.0444,"dy":0.0017,"dx":0.0017,"nx":28,"ny":28,"refTime":"2024-05-11T21:00:00:Z","depth":0,"parameterNumber":3,"parameterNumberName":"V-component_of_WINDS"},"data":[0,0,0,0,0,0,0,0,0,0,0,0,0,0,0,0,0,0,0,0,0,0,0,0,0,0,0,0,0,0,0,0,0,0,0,0,0,0,0,0,0,0,0,0,0,0,0,0,0,0,0,0,0,0,0,0,0,0,-2.1283,-2.1283,0,-2.1292,-2.1292,-2.1292,-2.1283,-2.1283,-2.1283,-2.1282,-2.129,-2.129,-2.1291,0,0,0,0,0,0,0,0,0,0,0,0,0,-2.1256,-2.1256,-2.1283,-2.1283,-2.1283,-2.1292,-2.1292,-2.1292,-2.1283,-2.1283,-2.1283,-2.1282,-2.129,-2.129,-2.1291,0,0,0,0,0,0,0,0,0,0,0,0,0,-2.1266,-2.1256,-2.1283,-2.128,-2.1279,-2.1292,-2.1292,-2.1292,-2.1283,-2.1283,-2.1282,-2.1282,-2.1289,-2.129,-2.1291,-2.1306,0,0,-2.1293,-2.1294,0,0,0,0,0,0,0,0,-2.1266,-2.1267,-2.128,-2.128,-2.128,-2.1286,-2.1285,-2.1297,-2.1284,-2.1282,-2.1282,-2.1282,-2.1289,-2.129,-2.1292,-2.1307,-2.1307,-2.1293,-2.1294,-2.1294,-2.1294,0,0,0,0,0,0,0,-2.1265,-2.1267,-2.1286,-2.128,-2.128,-2.1277,-2.1278,-2.1288,-2.1288,-2.1282,-2.1281,-2.1283,-2.1289,-2.1292,-2.1293,-2.1307,-2.1293,-2.1294,-2.1294,-2.1295,-2.1336,-2.1337,0,0,0,0,0,0,-2.1265,-2.1266,-2.1286,-2.1287,-2.1271,-2.1278,-2.1279,-2.1284,-2.1288,-2.1288,-2.1283,-2.1282,-2.1291,-2.1292,-2.1293,-2.1313,-2.1294,-2.1295,-2.1295,-2.1336,-2.1336,-2.1337,0,0,0,0,0,0,-2.1264,-2.1267,-2.1286,-2.1276,-2.1279,-2.1279,-2.1285,-2.1285,-2.1288,-2.1289,-2.1289,-2.1286,-2.129,-2.1292,-2.1304,-2.1313,-2.1295,-2.1296,-2.1335,-2.1336,-2.1337,-2.1351,0,0,0,0,0,0,-2.1264,-2.1267,-2.1273,-2.1277,-2.1279,-2.1297,-2.1286,-2.1286,-2.129,-2.1289,-2.1292,-2.1292,-2.129,-2.1302,-2.1304,-2.1313,-2.1297,-2.1334,-2.1335,-2.1336,-2.135,-2.1353,-2.1355,0,0,0,0,0,-2.1263,-2.1275,-2.1273,-2.1275,-2.1287,-2.1297,-2.1299,-2.1297,-2.129,-2.1297,-2.1297,-2.1292,-2.1311,-2.1304,-2.1306,-2.1315,-2.1334,-2.1335,-2.1336,-2.1349,-2.1352,-2.1355,0,0,0,0,0,0,-2.1271,-2.1276,-2.1273,-2.1288,-2.1292,-2.1296,-2.1303,-2.13,-2.1306,-2.1304,-2.1301,-2.1302,-2.1315,-2.1316,-2.1308,-2.1331,-2.1321,-2.1323,-2.133,-2.1333,-2.1336,-2.1336,-2.1297,0,0,0,0,0,-2.1275,-2.1283,-2.1287,-2.1299,-2.1302,-2.1302,-2.1307,-2.1305,-2.1309,-2.1311,-2.1313,-2.1316,-2.1324,-2.1328,-2.1335,-2.135,-2.1351,-2.1358,-2.136,-2.1362,-2.1364,-2.1374,-2.1377,-2.1342,-2.1342,-2.1342,0,0,-2.1282,-2.1286,-2.1291,-2.1301,-2.1305,-2.1314,-2.1304,-2.1313,-2.132,-2.1312,-2.1324,-2.1326,-2.133,-2.1344,-2.135,-2.1345,-2.1374,-2.1364,-2.1365,-2.1366,-2.1376,-2.1379,-2.1382,-2.1343,-2.1343,-2.1342,0,0,-2.1301,-2.1304,-2.1316,-2.132,-2.1326,-2.1326,-2.1329,-2.1333,-2.1335,-2.1347,-2.1342,-2.1349,-2.1361,-2.1365,-2.1368,-2.139,-2.1386,-2.1392,-2.1405,-2.1415,-2.1418,-2.142,-2.143,-2.1433,-2.1394,-2.1394,-2.1394,0,-2.1309,-2.1323,-2.1322,-2.1333,-2.1337,-2.1332,-2.1344,-2.1348,-2.1355,-2.1359,-2.1353,-2.1369,-2.1372,-2.1388,-2.1393,-2.1396,-2.1399,-2.1392,-2.1418,-2.142,-2.1422,-2.1431,-2.1434,-2.1395,-2.1395,-2.1395,-2.1395,0,-2.1334,-2.1344,-2.1352,-2.1361,-2.1367,-2.1378,-2.1379,-2.1385,-2.1383,-2.1384,-2.1397,-2.14,-2.1408,-2.1411,-2.1409,-2.1427,-2.1424,-2.1418,-2.1408,-2.1427,-2.1435,-2.1438,-2.1396,-2.1396,-2.1396,-2.1395,0,0,-2.1357,-2.1367,-2.137,-2.1375,-2.1382,-2.1389,-2.1401,-2.141,-2.1415,-2.1421,-2.1431,-2.1442,-2.1437,-2.1441,-2.1439,-2.1447,-2.1466,-2.144,-2.144,-2.1446,-2.1489,-2.1494,-2.1498,-2.1463,-2.1464,-2.1464,-2.1489,0,-2.1377,-2.1398,-2.1398,-2.1417,-2.1427,-2.1423,-2.1433,-2.1438,-2.144,-2.1448,-2.1449,-2.1458,-2.145,-2.1453,-2.1461,-2.1462,-2.1475,-2.146,-2.1473,-2.1473,-2.1473,-2.1502,-2.1508,-2.1531,-2.1492,-2.1492,-2.1493,0,-2.1403,-2.1411,-2.1432,-2.144,-2.1444,-2.1453,-2.1462,-2.147,-2.1476,-2.1477,-2.1482,-2.1479,-2.1491,-2.1481,-2.1497,-2.1487,-2.1492,-2.1494,-2.1495,-2.1497,-2.1485,-2.1506,-2.1538,-2.1542,-2.1498,-2.1497,-2.1497,0,-2.142,-2.1436,-2.1451,-2.1455,-2.1464,-2.1471,-2.1474,-2.148,-2.1486,-2.1494,-2.1498,-2.1506,-2.1511,-2.1517,-2.1517,-2.1509,-2.1534,-2.1523,-2.1536,-2.1536,-2.1542,-2.1542,-2.1576,-2.1543,-2.1543,-2.1543,-2.1543,0,-2.1442,-2.1456,-2.1459,-2.1469,-2.1484,-2.1484,-2.1498,-2.1501,-2.1507,-2.1517,-2.1513,-2.1522,-2.152,-2.153,-2.1529,-2.1544,-2.1545,-2.1547,-2.1547,-2.1548,-2.1548,-2.1552,-2.1551,-2.1544,-2.1544,-2.1543,-2.1543,0,-2.1464,-2.1467,-2.1483,-2.1491,-2.1493,-2.1504,-2.1511,-2.152,-2.1521,-2.1534,-2.1537,-2.1539,-2.155,-2.1551,-2.1562,-2.1562,-2.1581,-2.1578,-2.1579,-2.1579,-2.1592,-2.1592,-2.1632,-2.1637,-2.1599,-2.1599,-2.16,0,-2.1479,-2.1489,-2.1499,-2.1506,-2.1511,-2.1522,-2.1529,-2.1529,-2.1536,-2.1546,-2.1554,-2.1565,-2.1573,-2.1591,-2.1594,-2.1603,-2.1601,-2.1615,-2.1603,-2.1604,-2.1603,-2.1603,-2.1605,-2.1617,-2.1618,-2.1618,-2.1618,0,-2.1506,-2.1507,-2.1518,-2.1529,-2.1538,-2.1547,-2.1555,-2.1561,-2.1562,-2.157,-2.1582,-2.1589,-2.1603,-2.1614,-2.1624,-2.1627,-2.1623,-2.1622,-2.1626,-2.1628,-2.1629,-2.163,-2.1587,-2.1621,-2.1621,-2.1621,-2.1621,-2.1621,-2.1525,-2.1535,-2.1545,-2.1557,-2.1564,-2.1572,-2.1581,-2.1585,-2.1596,-2.1608,-2.1607,-2.1621,-2.1628,-2.1641,-2.1645,-2.1656,-2.1651,-2.1656,-2.1657,-2.1659,-2.1661,-2.1626,-2.1657,-2.1657,-2.1657,-2.1657,-2.1657,0,-2.1553,-2.156,-2.1571,-2.1584,-2.1594,-2.1591,-2.16,-2.1608,-2.1621,-2.1629,-2.1638,-2.1653,-2.1664,-2.1668,-2.1679,-2.1687,-2.1686,-2.169,-2.169,-2.1691,-2.1664,-2.166,-2.1691,-2.1691,-2.1691,-2.1691,-2.1691,-2.1691,-2.1569,-2.1587,-2.159,-2.1611,-2.1616,-2.1631,-2.1637,-2.1645,-2.1651,-2.1668,-2.1678,-2.1681,-2.1688,-2.17,-2.171,-2.1711,-2.1716,-2.1721,-2.1721,-2.1696,-2.1693,-2.1689,-2.1686,-2.1722,-2.1722,-2.1748,-2.1748,-2.1748]}]]